Location: Cruquius
(52.3348°N, 4.6319°E)
Time: 20:49:50
(UTC+00:00)

BREEZE-M DEB (TANK) - Pass Details

Date: 12 May 2021
Orbit: 276 x 16788 km, 49.5° (Epoch: 19 June)

Event Time Altitude Azimuth Distance (km) Brightness Sun altitude
Rises 21:26:36 0° 272° (W) 2,042 5.7 -13.8°
Reaches altitude 10° 21:28:28 10° 258° (WSW) 1,105 4.1 -13.9°
Enters shadow 21:30:04 27° 202° (SSW) 610 2.2 -14.0°
